SDG094 LIPZ-LICC

Flight info

Callsign SDG094
Flight time 1h 26m
Altitude 41000
Route CHI DCT ALAXI DCT AMANO DCT VAKOR DCT PELEN DCT UXUTA
Aircraft A359/H-SDE2E3GHIJ3J4J5LM1ORWXY/LB1D1

Departure

Time 2026-05-05 20:10
Airport Venice Marco Polo Airport (LIPZ)

Arrival

Time 2026-05-05 21:37
Airport Catania-Fontanarossa Airport (LICC)
Time Latitude Longitude Altitude Speed Heading
2026-05-05 19:51 45.50010 12.33891 26 ft 0 kts 312°
2026-05-05 20:04 45.50002 12.33903 25 ft 4 kts 308°
2026-05-05 20:04 45.49988 12.33935 24 ft 4 kts 294°
2026-05-05 20:04 45.49978 12.33971 24 ft 4 kts 284°
2026-05-05 20:05 45.49976 12.33984 23 ft 0 kts 284°
2026-05-05 20:07 45.49973 12.33974 24 ft 2 kts 252°
2026-05-05 20:07 45.49945 12.33920 24 ft 14 kts 232°
2026-05-05 20:07 45.49850 12.33837 20 ft 19 kts 197°
2026-05-05 20:08 45.49714 12.33781 25 ft 21 kts 204°
2026-05-05 20:08 45.49588 12.33647 24 ft 24 kts 220°
2026-05-05 20:08 45.49557 12.33619 22 ft 6 kts 205°
2026-05-05 20:08 45.49460 12.33681 22 ft 23 kts 133°
2026-05-05 20:09 45.49455 12.33833 22 ft 11 kts 44°
2026-05-05 20:09 45.49514 12.33909 23 ft 9 kts 43°
2026-05-05 20:09 45.49516 12.33912 21 ft 0 kts 43°
2026-05-05 20:10 45.49651 12.34086 15 ft 71 kts 43°
2026-05-05 20:10 45.50231 12.34831 22 ft 150 kts 42°
2026-05-05 20:10 45.51076 12.35924 693 ft 164 kts 42°
2026-05-05 20:11 45.51905 12.37094 1527 ft 180 kts 48°
2026-05-05 20:11 45.52856 12.38482 2138 ft 204 kts 47°
2026-05-05 20:11 45.53567 12.40238 3032 ft 207 kts 79°
2026-05-05 20:11 45.53567 12.42264 3914 ft 212 kts 99°
2026-05-05 20:12 45.53339 12.44380 4791 ft 220 kts 101°
2026-05-05 20:12 45.53087 12.46565 5683 ft 227 kts 101°
2026-05-05 20:12 45.52837 12.48825 6615 ft 234 kts 101°
2026-05-05 20:12 45.52495 12.51117 7585 ft 236 kts 113°
2026-05-05 20:13 45.51587 12.52984 8605 ft 228 kts 147°
2026-05-05 20:13 45.50146 12.53896 9447 ft 234 kts 176°
2026-05-05 20:13 45.48456 12.53772 9973 ft 255 kts 194°
2026-05-05 20:13 45.46625 12.53276 10537 ft 281 kts 194°
2026-05-05 20:14 45.44609 12.52730 11022 ft 308 kts 193°
2026-05-05 20:14 45.42433 12.52177 11747 ft 325 kts 193°
2026-05-05 20:14 45.40208 12.51636 12728 ft 332 kts 192°
2026-05-05 20:14 45.37905 12.51084 13779 ft 338 kts 192°
2026-05-05 20:15 45.35570 12.50528 14716 ft 343 kts 192°
2026-05-05 20:15 45.33247 12.49725 15632 ft 344 kts 203°
2026-05-05 20:15 45.31105 12.48203 16594 ft 345 kts 212°
2026-05-05 20:15 45.29021 12.46454 17559 ft 349 kts 213°
2026-05-05 20:16 45.26926 12.44677 18499 ft 353 kts 213°
2026-05-05 20:16 45.24800 12.42885 19325 ft 358 kts 213°
2026-05-05 20:16 45.22642 12.41074 20224 ft 361 kts 213°
2026-05-05 20:16 45.20471 12.39259 21135 ft 365 kts 212°
2026-05-05 20:17 45.18263 12.37417 21986 ft 370 kts 212°
2026-05-05 20:17 45.16059 12.35581 22830 ft 374 kts 212°
2026-05-05 20:17 45.13803 12.33704 23648 ft 379 kts 212°
2026-05-05 20:17 45.11484 12.31863 24358 ft 384 kts 209°
2026-05-05 20:18 45.08985 12.30432 25095 ft 391 kts 201°
2026-05-05 20:18 45.06294 12.29638 25843 ft 400 kts 191°
2026-05-05 20:18 45.03471 12.29573 26506 ft 412 kts 181°
2026-05-05 20:18 45.00598 12.30175 27159 ft 422 kts 175°
2026-05-05 20:19 44.97709 12.31053 27789 ft 429 kts 173°
2026-05-05 20:19 44.94768 12.32069 28272 ft 439 kts 172°
2026-05-05 20:19 44.91789 12.33142 28888 ft 444 kts 172°
2026-05-05 20:19 44.88779 12.34225 29580 ft 447 kts 173°
2026-05-05 20:20 44.85750 12.35294 30188 ft 451 kts 173°
2026-05-05 20:20 44.82705 12.36345 30704 ft 454 kts 173°
2026-05-05 20:20 44.79606 12.37398 31275 ft 457 kts 174°
2026-05-05 20:20 44.76516 12.38436 31800 ft 459 kts 174°
2026-05-05 20:21 44.73391 12.39481 32334 ft 462 kts 174°
2026-05-05 20:21 44.70297 12.40512 32798 ft 464 kts 174°
2026-05-05 20:21 44.67130 12.41566 33267 ft 467 kts 174°
2026-05-05 20:21 44.63950 12.42623 33707 ft 470 kts 174°
2026-05-05 20:22 44.60764 12.43683 34097 ft 473 kts 174°
2026-05-05 20:22 44.57541 12.44754 34435 ft 476 kts 174°
2026-05-05 20:22 44.54326 12.45824 34875 ft 477 kts 174°
2026-05-05 20:22 44.51097 12.46899 35303 ft 477 kts 174°
2026-05-05 20:23 44.47863 12.47975 35733 ft 477 kts 173°
2026-05-05 20:23 44.44622 12.49047 35994 ft 481 kts 173°
2026-05-05 20:23 44.41350 12.50128 36356 ft 482 kts 173°
2026-05-05 20:23 44.38091 12.51206 36793 ft 482 kts 173°
2026-05-05 20:24 44.34822 12.52287 37200 ft 482 kts 172°
2026-05-05 20:24 44.31559 12.53364 37600 ft 482 kts 172°
2026-05-05 20:24 44.28281 12.54444 37963 ft 483 kts 172°
2026-05-05 20:24 44.25015 12.55518 38338 ft 484 kts 172°
2026-05-05 20:25 44.21732 12.56597 38721 ft 483 kts 172°
2026-05-05 20:25 44.18503 12.57657 39058 ft 483 kts 172°
2026-05-05 20:25 44.15238 12.58728 39392 ft 482 kts 172°
2026-05-05 20:25 44.11973 12.59797 39715 ft 481 kts 172°
2026-05-05 20:26 44.08716 12.60862 39989 ft 481 kts 172°
2026-05-05 20:26 44.05451 12.61928 40289 ft 481 kts 172°
2026-05-05 20:26 44.02196 12.62990 40572 ft 481 kts 172°
2026-05-05 20:26 43.98937 12.64052 40854 ft 481 kts 171°
2026-05-05 20:27 43.95667 12.65115 40983 ft 483 kts 171°
2026-05-05 20:27 43.89131 12.67239 40987 ft 482 kts 172°
2026-05-05 20:28 43.82567 12.69366 40995 ft 489 kts 172°
2026-05-05 20:28 43.75922 12.71510 40990 ft 496 kts 171°
2026-05-05 20:29 43.69198 12.73683 40987 ft 496 kts 171°
2026-05-05 20:29 43.62480 12.75851 40999 ft 495 kts 171°
2026-05-05 20:30 43.55772 12.78009 41003 ft 495 kts 172°
2026-05-05 20:30 43.49045 12.80164 41005 ft 496 kts 171°
2026-05-05 20:31 43.42373 12.82297 41017 ft 495 kts 171°
2026-05-05 20:31 43.35614 12.84454 41019 ft 495 kts 172°
2026-05-05 20:32 43.28938 12.86577 41012 ft 495 kts 172°
2026-05-05 20:32 43.22227 12.88709 41030 ft 495 kts 172°
2026-05-05 20:33 43.15503 12.90838 41038 ft 495 kts 172°
2026-05-05 20:33 43.08792 12.92963 41027 ft 495 kts 172°
2026-05-05 20:34 43.02083 12.95079 41034 ft 495 kts 172°
2026-05-05 20:34 42.95401 12.97185 41040 ft 495 kts 172°
2026-05-05 20:35 42.88673 12.99298 41024 ft 495 kts 172°
2026-05-05 20:35 42.81967 13.01398 41045 ft 495 kts 172°
2026-05-05 20:36 42.76378 13.03146 41054 ft 495 kts 172°
2026-05-05 20:36 42.68558 13.05588 41051 ft 495 kts 172°
2026-05-05 20:37 42.61843 13.07678 41056 ft 495 kts 172°
2026-05-05 20:37 42.56217 13.09425 41061 ft 495 kts 172°
2026-05-05 20:38 42.49547 13.11493 41061 ft 495 kts 172°
2026-05-05 20:38 42.42817 13.13576 41059 ft 496 kts 172°
2026-05-05 20:39 42.36070 13.15656 41057 ft 497 kts 172°
2026-05-05 20:39 42.29311 13.17738 41065 ft 498 kts 172°
2026-05-05 20:40 42.22548 13.19819 41068 ft 498 kts 172°
2026-05-05 20:40 42.15799 13.21889 41071 ft 497 kts 172°
2026-05-05 20:41 42.09058 13.23952 41077 ft 497 kts 172°
2026-05-05 20:41 42.02338 13.26003 41075 ft 497 kts 172°
2026-05-05 20:42 41.95594 13.28056 41082 ft 497 kts 172°
2026-05-05 20:42 41.88836 13.30112 41076 ft 497 kts 172°
2026-05-05 20:43 41.82094 13.32158 41075 ft 497 kts 172°
2026-05-05 20:43 41.75349 13.34199 41082 ft 496 kts 172°
2026-05-05 20:44 41.68595 13.36032 41087 ft 494 kts 176°
2026-05-05 20:44 41.61799 13.37292 41073 ft 492 kts 177°
2026-05-05 20:45 41.51605 13.39157 41082 ft 492 kts 176°
2026-05-05 20:45 41.44870 13.40479 41081 ft 492 kts 176°
2026-05-05 20:46 41.38085 13.41835 41072 ft 493 kts 176°
2026-05-05 20:46 41.31310 13.43187 41078 ft 492 kts 176°
2026-05-05 20:47 41.24525 13.44534 41077 ft 491 kts 176°
2026-05-05 20:47 41.17854 13.45859 41067 ft 481 kts 176°
2026-05-05 20:48 41.11255 13.47161 41075 ft 479 kts 176°
2026-05-05 20:48 41.04663 13.48456 41073 ft 478 kts 176°
2026-05-05 20:49 40.98084 13.49748 41070 ft 479 kts 176°
2026-05-05 20:49 40.91525 13.51034 41076 ft 478 kts 176°
2026-05-05 20:50 40.84947 13.52323 41079 ft 477 kts 176°
2026-05-05 20:50 40.78374 13.53608 41077 ft 477 kts 176°
2026-05-05 20:51 40.71810 13.54888 41073 ft 478 kts 176°
2026-05-05 20:51 40.65228 13.56168 41071 ft 478 kts 176°
2026-05-05 20:52 40.58633 13.57450 41067 ft 478 kts 176°
2026-05-05 20:52 40.52099 13.58717 41060 ft 478 kts 176°
2026-05-05 20:53 40.45523 13.59990 41068 ft 477 kts 176°
2026-05-05 20:53 40.38950 13.61259 41072 ft 477 kts 176°
2026-05-05 20:54 40.32375 13.62526 41068 ft 477 kts 176°
2026-05-05 20:54 40.25803 13.63790 41070 ft 477 kts 176°
2026-05-05 20:55 40.19235 13.65051 41070 ft 477 kts 176°
2026-05-05 20:55 40.12661 13.66311 41068 ft 477 kts 176°
2026-05-05 20:56 40.06099 13.67565 41067 ft 477 kts 176°
2026-05-05 20:56 39.99537 13.68817 41070 ft 476 kts 172°
2026-05-05 20:57 39.93042 13.70317 41067 ft 478 kts 171°
2026-05-05 20:57 39.86479 13.71825 41067 ft 478 kts 172°
2026-05-05 20:58 39.79901 13.73156 41067 ft 478 kts 173°
2026-05-05 20:58 39.73323 13.74400 41064 ft 477 kts 173°
2026-05-05 20:59 39.66783 13.75622 41064 ft 477 kts 173°
2026-05-05 20:59 39.60208 13.76856 41061 ft 478 kts 173°
2026-05-05 21:00 39.53627 13.78093 41064 ft 478 kts 173°
2026-05-05 21:00 39.47043 13.79331 41064 ft 478 kts 173°
2026-05-05 21:01 39.40572 13.81386 41057 ft 482 kts 159°
2026-05-05 21:01 39.34416 13.84927 41060 ft 488 kts 155°
2026-05-05 21:02 39.28270 13.88747 41061 ft 491 kts 155°
2026-05-05 21:02 39.22106 13.92581 41061 ft 492 kts 155°
2026-05-05 21:03 39.15967 13.96352 41056 ft 492 kts 155°
2026-05-05 21:03 39.09777 14.00126 41056 ft 492 kts 155°
2026-05-05 21:04 39.03585 14.03889 41055 ft 492 kts 155°
2026-05-05 21:04 38.97398 14.07643 41053 ft 492 kts 155°
2026-05-05 21:05 38.91200 14.11398 41051 ft 492 kts 155°
2026-05-05 21:05 38.84997 14.15149 41051 ft 492 kts 155°
2026-05-05 21:06 38.78797 14.18892 41046 ft 492 kts 155°
2026-05-05 21:06 38.75702 14.20759 40786 ft 490 kts 155°
2026-05-05 21:06 38.72667 14.22592 40014 ft 484 kts 155°
2026-05-05 21:07 38.69647 14.24403 38898 ft 474 kts 156°
2026-05-05 21:07 38.66711 14.26145 38180 ft 456 kts 156°
2026-05-05 21:07 38.63837 14.27848 37551 ft 460 kts 155°
2026-05-05 21:07 38.60919 14.29596 36872 ft 465 kts 155°
2026-05-05 21:08 38.57989 14.31369 36121 ft 466 kts 155°
2026-05-05 21:08 38.55045 14.33155 35377 ft 468 kts 155°
2026-05-05 21:08 38.52088 14.34947 34580 ft 471 kts 155°
2026-05-05 21:08 38.49114 14.36748 33649 ft 474 kts 154°
2026-05-05 21:09 38.46166 14.38529 32726 ft 476 kts 155°
2026-05-05 21:09 38.43166 14.40337 31785 ft 479 kts 155°
2026-05-05 21:09 38.40132 14.42156 30808 ft 481 kts 155°
2026-05-05 21:09 38.37092 14.43963 29751 ft 484 kts 155°
2026-05-05 21:10 38.34035 14.45760 29027 ft 481 kts 155°
2026-05-05 21:10 38.31003 14.47510 28318 ft 474 kts 156°
2026-05-05 21:10 38.27998 14.49189 27621 ft 468 kts 156°
2026-05-05 21:10 38.25033 14.50874 26918 ft 466 kts 156°
2026-05-05 21:11 38.22121 14.52556 26220 ft 463 kts 156°
2026-05-05 21:11 38.19176 14.54272 25533 ft 458 kts 155°
2026-05-05 21:11 38.16324 14.55943 24838 ft 453 kts 155°
2026-05-05 21:11 38.13480 14.57616 24156 ft 448 kts 155°
2026-05-05 21:12 38.10667 14.59273 23447 ft 444 kts 155°
2026-05-05 21:12 38.07887 14.60910 22708 ft 438 kts 155°
2026-05-05 21:12 38.05127 14.62536 22020 ft 432 kts 155°
2026-05-05 21:12 38.02418 14.64133 21338 ft 428 kts 155°
2026-05-05 21:13 37.99727 14.65716 20662 ft 425 kts 155°
2026-05-05 21:13 37.97056 14.67286 19976 ft 421 kts 155°
2026-05-05 21:13 37.94395 14.68770 19267 ft 414 kts 160°
2026-05-05 21:13 37.91634 14.69618 18742 ft 407 kts 173°
2026-05-05 21:14 37.88757 14.69692 18572 ft 419 kts 187°
2026-05-05 21:14 37.85964 14.68854 18278 ft 405 kts 201°
2026-05-05 21:14 37.83521 14.67197 17545 ft 395 kts 217°
2026-05-05 21:14 37.81607 14.64755 17162 ft 397 kts 233°
2026-05-05 21:15 37.80345 14.61752 16920 ft 377 kts 249°
2026-05-05 21:15 37.79770 14.58608 16682 ft 358 kts 256°
2026-05-05 21:15 37.79078 14.55665 16432 ft 342 kts 246°
2026-05-05 21:15 37.78185 14.52947 16141 ft 328 kts 244°
2026-05-05 21:16 37.77287 14.50419 15737 ft 301 kts 242°
2026-05-05 21:16 37.76220 14.48250 15208 ft 284 kts 227°
2026-05-05 21:16 37.74756 14.46717 14926 ft 271 kts 210°
2026-05-05 21:16 37.72977 14.45838 14684 ft 277 kts 192°
2026-05-05 21:17 37.71042 14.45686 14360 ft 280 kts 177°
2026-05-05 21:17 37.69089 14.45901 14115 ft 284 kts 175°
2026-05-05 21:17 37.67156 14.46154 13813 ft 281 kts 174°
2026-05-05 21:17 37.65206 14.46622 13507 ft 284 kts 162°
2026-05-05 21:18 37.63567 14.47949 13216 ft 288 kts 133°
2026-05-05 21:18 37.62588 14.50158 12736 ft 294 kts 102°
2026-05-05 21:18 37.62562 14.52713 12319 ft 292 kts 77°
2026-05-05 21:18 37.62847 14.55241 12083 ft 288 kts 79°
2026-05-05 21:19 37.63074 14.57717 11840 ft 282 kts 81°
2026-05-05 21:19 37.63270 14.60175 11596 ft 281 kts 81°
2026-05-05 21:19 37.63452 14.62623 11364 ft 279 kts 82°
2026-05-05 21:19 37.63625 14.65034 11062 ft 279 kts 81°
2026-05-05 21:20 37.63796 14.67476 10695 ft 277 kts 82°
2026-05-05 21:20 37.63899 14.69887 10402 ft 275 kts 90°
2026-05-05 21:20 37.63394 14.72207 10178 ft 275 kts 118°
2026-05-05 21:20 37.62106 14.73941 9959 ft 270 kts 147°
2026-05-05 21:21 37.60391 14.74698 9763 ft 263 kts 171°
2026-05-05 21:21 37.58588 14.74942 9644 ft 259 kts 174°
2026-05-05 21:21 37.56827 14.75044 9413 ft 248 kts 184°
2026-05-05 21:21 37.55212 14.74449 9148 ft 241 kts 209°
2026-05-05 21:22 37.54020 14.73010 8936 ft 237 kts 236°
2026-05-05 21:22 37.53486 14.71064 8713 ft 235 kts 258°
2026-05-05 21:22 37.53287 14.69057 8519 ft 233 kts 261°
2026-05-05 21:22 37.53125 14.67038 8307 ft 231 kts 260°
2026-05-05 21:23 37.52959 14.65022 8094 ft 231 kts 260°
2026-05-05 21:23 37.52791 14.63008 7966 ft 231 kts 260°
2026-05-05 21:23 37.52617 14.60993 7858 ft 231 kts 260°
2026-05-05 21:23 37.52441 14.58982 7741 ft 231 kts 260°
2026-05-05 21:24 37.52264 14.56964 7640 ft 231 kts 259°
2026-05-05 21:24 37.52146 14.55630 7550 ft 231 kts 259°
2026-05-05 21:24 37.51969 14.53621 7428 ft 231 kts 259°
2026-05-05 21:24 37.51732 14.50956 7281 ft 230 kts 259°
2026-05-05 21:25 37.51554 14.48956 7164 ft 230 kts 259°
2026-05-05 21:25 37.51406 14.47615 7086 ft 227 kts 256°
2026-05-05 21:25 37.50813 14.45796 6936 ft 225 kts 229°
2026-05-05 21:25 37.49578 14.44698 6747 ft 222 kts 195°
2026-05-05 21:26 37.48036 14.44553 6611 ft 225 kts 172°
2026-05-05 21:26 37.46468 14.44801 6490 ft 229 kts 169°
2026-05-05 21:26 37.44886 14.45080 6373 ft 228 kts 169°
2026-05-05 21:26 37.43362 14.45568 6257 ft 227 kts 153°
2026-05-05 21:27 37.42190 14.46826 6141 ft 227 kts 120°
2026-05-05 21:27 37.41765 14.48715 6010 ft 228 kts 88°
2026-05-05 21:27 37.41908 14.50726 5878 ft 233 kts 80°
2026-05-05 21:27 37.42129 14.52701 5754 ft 217 kts 81°
2026-05-05 21:28 37.42306 14.54496 5664 ft 202 kts 82°
2026-05-05 21:28 37.42466 14.56238 5554 ft 195 kts 82°
2026-05-05 21:28 37.42628 14.57884 5470 ft 191 kts 81°
2026-05-05 21:28 37.42796 14.59536 5424 ft 188 kts 81°
2026-05-05 21:29 37.42926 14.61133 5395 ft 179 kts 84°
2026-05-05 21:29 37.43007 14.62680 5387 ft 176 kts 84°
2026-05-05 21:29 37.43121 14.64214 5384 ft 175 kts 82°
2026-05-05 21:29 37.43257 14.65742 5384 ft 176 kts 82°
2026-05-05 21:30 37.43390 14.67273 5391 ft 176 kts 82°
2026-05-05 21:30 37.43517 14.68797 5385 ft 176 kts 82°
2026-05-05 21:30 37.43645 14.70331 5383 ft 176 kts 82°
2026-05-05 21:30 37.43773 14.71865 5279 ft 175 kts 82°
2026-05-05 21:31 37.43899 14.73369 5084 ft 174 kts 82°
2026-05-05 21:31 37.44026 14.74881 4838 ft 173 kts 83°
2026-05-05 21:31 37.44152 14.76374 4581 ft 170 kts 82°
2026-05-05 21:31 37.44276 14.77843 4312 ft 169 kts 82°
2026-05-05 21:32 37.44401 14.79317 4071 ft 169 kts 82°
2026-05-05 21:32 37.44523 14.80768 3829 ft 161 kts 82°
2026-05-05 21:32 37.44633 14.82103 3619 ft 149 kts 82°
2026-05-05 21:32 37.44739 14.83369 3448 ft 144 kts 82°
2026-05-05 21:33 37.44848 14.84670 3261 ft 153 kts 82°
2026-05-05 21:33 37.44961 14.86007 3053 ft 154 kts 82°
2026-05-05 21:33 37.45074 14.87350 2847 ft 154 kts 81°
2026-05-05 21:33 37.45186 14.88688 2653 ft 154 kts 81°
2026-05-05 21:34 37.45299 14.90022 2443 ft 153 kts 81°
2026-05-05 21:34 37.45411 14.91355 2235 ft 152 kts 81°
2026-05-05 21:34 37.45521 14.92674 2042 ft 151 kts 81°
2026-05-05 21:34 37.45631 14.93993 1835 ft 152 kts 80°
2026-05-05 21:35 37.45741 14.95300 1633 ft 152 kts 80°
2026-05-05 21:35 37.45852 14.96630 1427 ft 154 kts 80°
2026-05-05 21:35 37.45965 14.97997 1225 ft 160 kts 80°
2026-05-05 21:35 37.46081 14.99397 1006 ft 161 kts 79°
2026-05-05 21:36 37.46197 15.00792 817 ft 159 kts 79°
2026-05-05 21:36 37.46311 15.02174 601 ft 158 kts 79°
2026-05-05 21:36 37.46423 15.03547 372 ft 158 kts 84°
2026-05-05 21:36 37.46533 15.04890 121 ft 153 kts 82°
2026-05-05 21:37 37.46641 15.06141 41 ft 131 kts 84°
2026-05-05 21:37 37.46709 15.06986 42 ft 58 kts 83°
2026-05-05 21:37 37.46731 15.07263 42 ft 26 kts 84°
2026-05-05 21:37 37.46758 15.07503 43 ft 29 kts 77°
2026-05-05 21:38 37.46821 15.07699 43 ft 24 kts 59°
2026-05-05 21:38 37.46903 15.07795 39 ft 15 kts 11°
2026-05-05 21:38 37.46953 15.07761 39 ft 5 kts 281°
2026-05-05 21:38 37.46947 15.07712 39 ft 8 kts 257°
2026-05-05 21:39 37.46930 15.07609 39 ft 15 kts 261°
2026-05-05 21:39 37.46913 15.07454 39 ft 20 kts 263°
2026-05-05 21:39 37.46898 15.07263 39 ft 22 kts 265°
2026-05-05 21:39 37.46886 15.07087 38 ft 21 kts 263°
2026-05-05 21:40 37.46870 15.06935 38 ft 19 kts 262°
2026-05-05 21:40 37.46855 15.06753 38 ft 23 kts 265°
2026-05-05 21:40 37.46836 15.06532 38 ft 27 kts 264°
2026-05-05 21:40 37.46827 15.06354 38 ft 11 kts 282°
2026-05-05 21:41 37.46864 15.06337 38 ft 6 kts 23°
2026-05-05 21:41 37.46920 15.06367 38 ft 11 kts 28°
2026-05-05 21:41 37.46937 15.06381 38 ft 3 kts 35°
2026-05-05 21:41 37.46962 15.06403 38 ft 1 kts 32°
2026-05-05 21:42 37.46971 15.06410 38 ft 0 kts 32°
2026-05-05 21:42 37.46978 15.06416 38 ft 0 kts 32°